Weather in Tonschalovo

Russia / Vologda Oblast     59°11′38″N   37°56′55″E
temp.,
°C
wind,
m/s
gust,
m/s
humid.,
%
clouds,
%
prec.,
mm/h
press.,
hPa
HPBL,
m
14 april, wed
wed1400:00+8s3688100 0.4 1020100
03:00+7sse34870 0.4 102066
06:00+6sse3108794 0.0 1019166
09:00+10s5117374 0.0 1018329
12:00+13s596684 0.0 1017448
15:00+17ssw5106248 0.1 10161399
18:00+14w3678100 1.4 1016208
21:00+7n5891100 1.9 1019302
15 april, thu
thu1500:00+5n51090100 0.1 1020415
03:00+5nne4988100 0.6 1021532
06:00+5nne4108595 0.7 1022535
09:00+6nne51081100 0.7 1024713
12:00+8ne685957 0.0 10251225
15:00+9nne6856100 0.0 10251311
18:00+7ne5960100 0.0 10271019
21:00+4ne41267100 0.0 1028474
16 april, fri
fri1600:00+3ne5127390 0.0 1029399
03:00+1ne411817 0.0 1029311
06:000ne512793 0.0 1030385
09:00+4ene69600 0.0 1031654
12:00+8ene67440 0.0 10301003
15:00+10ene67360 0.0 10301183
18:00+9ene48475 0.0 1030805
21:00+4ne3106952 0.0 1031177
17 april, sat
sat1700:00+2ne387571 0.0 1032154
03:00+1ne387911 0.0 1033151
06:00+1ne37825 0.0 1034154
09:00+6ene46570 0.0 1033419
12:00+10ne56485 0.0 10341178
15:00+11ne46435 0.0 10331522
18:00+10ne46515 0.0 1033958
21:00+6ne35721 0.0 103488
18 april, sun
sun1800:00+4ne22784 0.0 103539
03:00+3ne22825 0.0 103526
06:00+2ene23834 0.0 103648
09:00+7ene23631 0.0 1036378
12:00+11ene23505 0.0 10351341
15:00+11ene344616 0.0 10361577
18:00+11e23507 0.0 10331077
21:00+7ese227011 0.0 103431